Weather History for Plattsburgh, NY

Change the Weather History Date:

Tuesday, March 13, 2012

  Actual Average Record
Temperature  
Mean Temperature 52 °F 30 °F  
Max Temperature 64 °F 39 °F 64 °F (2012)
Min Temperature 40 °F 20 °F -3 °F (1993)
Degree Days  
Heating Degree Days 13 36  
Month to date heating degree days 402 486  
Since 1 July heating degree days 5172 6098  
Cooling Degree Days 0 0  
Month to date cooling degree days 0 0  
Year to date cooling degree days 0 0  
Growing Degree Days 2 (Base 50)    
Moisture  
Dew Point 40 °F    
Average Humidity 66    
Maximum Humidity 86    
Minimum Humidity 46    
Precipitation  
Precipitation 0.11 in - 1.34 in (1993)
Month to date precipitation 0.54  
Year to date precipitation 3.22  
Sea Level Pressure  
Sea Level Pressure 29.88 in    
Wind  
Wind Speed 3 mph (SSW)    
Max Wind Speed 16 mph    
Max Gust Speed 23 mph    
Visibility 10 miles    
Events Rain    
T = Trace of Precipitation, MM = Missing Value Source: NWS Daily Summary

Daily Weather History Graph

Daily Weather History Graph

Search for Another Location

Airport:

Trip Planner

Search our weather history database for the weather conditions in past years. The results will help you decide how hot, cold, wet, or windy it might be!

Date:

Astronomy

Mar. 13, 2012 Rise Set
Actual Time 7:09 AM EDT 6:58 PM EDT
Civil Twilight 6:40 AM EDT 7:27 PM EDT
Nautical Twilight 6:06 AM EDT 8:01 PM EDT
Astronomical Twilight 5:31 AM EDT 8:35 PM EDT
Moon 12:42 AM EDT (3/13) 10:03 AM EDT (3/13)
Length of Visible Light 12h 47m
Length of Day
11h 48m
Waning Gibbous, 66% of the Moon is Illuminated
Mar 13
Waning Gibbous
Mar 14
Last Quarter
Mar 22
New
Mar 30
First Quarter
Apr 6
Full

Hourly Weather History & Observations

Time (EDT) Temp. Windchill Dew Point Humidity Pressure Visibility Wind Dir Wind Speed Gust Speed Precip Events Conditions
12:53 AM 42.1 °F 39.2 °F 34.0 °F 73% 30.01 in 10.0 mi South 4.6 mph - N/A   Overcast
1:53 AM 43.0 °F - 34.0 °F 71% 29.99 in 10.0 mi Calm Calm - N/A   Overcast
2:53 AM 43.0 °F - 36.0 °F 76% 29.96 in 10.0 mi Calm Calm - 0.00 in   Overcast
3:53 AM 42.1 °F - 37.0 °F 82% 29.94 in 10.0 mi Calm Calm - N/A   Overcast
4:53 AM 41.0 °F - 37.9 °F 89% 29.90 in 10.0 mi Calm Calm - 0.00 in   Overcast
5:53 AM 42.1 °F - 37.0 °F 82% 29.89 in 10.0 mi Calm Calm - 0.00 in   Overcast
6:53 AM 41.0 °F - 37.0 °F 86% 29.87 in 10.0 mi Calm Calm - N/A   Mostly Cloudy
7:53 AM 42.1 °F - 37.0 °F 82% 29.87 in 10.0 mi Calm Calm - N/A   Clear
8:53 AM 43.0 °F - 37.9 °F 82% 29.84 in 10.0 mi Calm Calm - 0.00 in Rain Light Rain
9:53 AM 46.9 °F - 42.1 °F 83% 29.83 in 10.0 mi Calm Calm - 0.00 in   Overcast
10:42 AM 44.6 °F - 42.8 °F 93% 29.83 in 2.0 mi Calm Calm - 0.08 in Rain Rain
10:53 AM 46.0 °F - 45.0 °F 96% 29.82 in 6.0 mi Calm Calm - 0.09 in Rain Light Rain
11:53 AM 50.0 °F - 48.0 °F 93% 29.83 in 10.0 mi Calm Calm - 0.02 in   Overcast
12:53 PM 55.0 °F - 50.0 °F 83% 29.84 in 10.0 mi SSE 3.5 mph - N/A   Mostly Cloudy
1:53 PM 61.0 °F - 46.0 °F 58% 29.84 in 10.0 mi WSW 9.2 mph 20.7 mph N/A   Overcast
2:53 PM 63.0 °F - 43.0 °F 48% 29.83 in 10.0 mi West 6.9 mph 16.1 mph N/A   Overcast
4:53 PM 61.0 °F - 41.0 °F 48% 29.85 in 10.0 mi Variable 5.8 mph - N/A   Overcast
5:53 PM 61.0 °F - 39.9 °F 46% 29.86 in 10.0 mi Variable 6.9 mph - N/A   Mostly Cloudy
6:53 PM 59.0 °F - 39.9 °F 49% 29.88 in 10.0 mi SSW 4.6 mph - N/A   Overcast
7:53 PM 52.0 °F - 39.9 °F 63% 29.89 in 10.0 mi South 3.5 mph - N/A   Clear
8:53 PM 51.1 °F - 39.0 °F 63% 29.89 in 10.0 mi South 3.5 mph - N/A   Clear
9:53 PM 45.0 °F - 39.0 °F 80% 29.90 in 10.0 mi Calm Calm - N/A   Clear
10:53 PM 52.0 °F - 39.0 °F 61% 29.91 in 10.0 mi SSW 3.5 mph - N/A   Mostly Cloudy
11:53 PM 51.1 °F - 39.9 °F 66% 29.91 in 10.0 mi SW 3.5 mph - N/A   Scattered Clouds